Theta_e
317 312 311 308 301 296 292 295 300 300 301 305 311 309 309 308 306 298 326 333 335 339 345 346 347 348 346 346 347 347 348 346 347 346 345 344 341 339 339 340 342 341 338 341 337 336 336 336 336
312 312 309 302 296 290 291 295 298 301 304 306 306 307 307 305 320 320 327 332 336 341 344 346 344 346 344 344 345 345 345 346 345 346 345 343 341 338 338 339 341 339 341 339 338 337 335 335 335
311 308 306 297 290 290 291 295 299 301 304 303 305 309 309 311 320 324 328 333 337 341 345 344 343 345 344 344 344 345 344 344 345 346 345 343 339 337 337 338 340 338 339 339 337 336 335 335 335
308 305 300 296 293 294 295 296 299 300 301 302 306 305 312 320 323 327 331 333 338 342 344 342 344 345 344 344 343 343 343 344 343 345 345 342 339 336 336 338 339 338 336 337 337 335 334 335 334
303 301 294 292 293 295 295 298 299 298 300 302 304 303 311 322 327 329 331 335 338 341 343 343 343 344 345 344 342 343 343 344 344 345 344 340 337 336 335 336 337 336 337 336 336 336 335 335 334
300 298 292 290 293 294 298 299 299 299 299 302 305 307 313 322 326 328 333 335 339 340 342 343 337 340 342 342 342 342 342 342 343 344 342 339 337 335 334 335 334 332 335 339 338 337 335 334 333
299 296 292 291 291 295 298 298 297 297 298 301 307 305 310 318 327 329 332 337 339 341 341 342 342 339 335 338 338 339 340 340 341 343 342 339 336 336 334 335 335 332 334 337 336 335 335 333 334
297 295 291 291 291 294 296 298 298 299 298 304 309 301 304 318 328 329 332 335 337 339 340 341 341 340 340 339 332 333 335 336 337 337 335 331 332 332 332 330 334 332 335 335 334 334 333 332 330
300 293 290 292 292 294 295 297 297 300 300 300 305 304 309 324 328 328 328 331 333 334 336 339 339 339 338 337 332 329 330 331 331 330 327 326 331 330 328 327 332 332 333 333 333 332 330 327 326
296 292 293 295 294 294 295 296 297 298 298 299 302 307 318 325 327 325 325 326 328 330 333 336 338 337 337 335 334 334 332 332 332 331 330 329 327 327 326 325 327 329 328 331 329 327 322 320 322
295 292 294 294 295 296 296 295 297 297 296 299 300 303 317 322 324 325 326 327 327 330 332 334 335 337 336 336 334 333 331 330 329 329 328 326 323 325 326 328 328 329 322 327 325 320 319 320 320
293 294 294 297 296 296 295 296 295 296 299 299 300 305 316 320 323 324 325 327 329 329 331 333 335 335 336 336 333 332 330 328 326 326 326 323 321 322 323 324 324 324 324 322 319 318 317 318 318
293 293 294 295 295 294 296 294 294 295 298 297 299 307 315 321 323 325 327 326 329 328 330 332 334 334 335 335 334 333 331 328 326 324 324 323 320 320 321 322 322 320 319 318 316 316 316 316 317
293 292 293 294 294 294 292 291 293 294 295 295 297 301 308 317 321 320 323 324 325 329 331 333 332 334 334 334 334 334 333 331 326 323 323 322 320 319 320 319 320 319 317 316 315 315 315 315 316
293 291 291 291 293 292 293 290 292 293 293 293 294 296 301 308 315 320 324 325 325 328 331 333 332 334 333 333 333 334 333 330 327 323 322 321 320 318 318 318 318 318 315 314 313 313 312 312 313
290 288 286 289 292 292 291 286 290 293 293 293 293 294 294 297 309 315 319 323 324 325 328 331 332 332 333 333 333 333 333 331 329 325 322 320 319 318 316 317 318 317 315 313 311 308 308 306 308
286 283 284 287 291 292 290 287 291 293 293 293 293 293 293 294 296 300 312 318 321 324 326 328 331 332 332 332 332 332 332 332 331 327 323 320 319 317 315 314 315 315 313 312 307 304 306 304 305
283 282 283 282 287 289 288 289 292 293 293 293 293 294 294 294 296 298 298 307 315 319 323 327 329 332 332 332 331 331 331 331 330 327 323 321 320 318 317 315 314 314 312 310 309 306 302 303 303
286 283 282 284 289 289 288 288 291 293 292 292 293 294 294 295 298 297 298 298 303 312 317 321 326 329 330 330 329 328 327 329 329 327 325 323 321 318 316 315 313 313 311 310 307 303 303 297 297
285 283 284 286 288 288 286 288 290 291 292 294 294 293 293 293 295 295 296 296 296 303 311 316 322 326 329 330 331 331 329 329 330 330 327 324 322 320 318 316 314 313 312 309 305 303 299 299 298
283 283 283 283 285 285 283 284 285 288 289 291 291 292 292 292 293 294 294 294 295 295 300 310 316 322 327 330 330 328 328 326 328 328 328 324 324 323 318 317 315 314 313 310 307 305 304 302 295
283 287 286 285 283 280 283 278 283 286 287 289 291 289 291 292 290 291 294 297 297 296 295 300 310 317 323 328 328 327 325 325 327 328 329 328 324 324 321 320 318 315 313 313 309 307 308 307 298
285 287 286 285 282 281 281 280 283 283 286 288 290 291 290 291 292 294 295 296 298 298 297 296 300 310 317 324 327 326 325 327 328 329 328 328 326 325 323 322 320 317 317 314 311 308 305 306 305
288 285 284 282 280 277 279 280 280 282 285 285 288 289 290 292 292 293 295 296 296 298 299 302 300 302 310 318 324 324 324 324 319 321 325 326 326 325 324 323 321 320 318 316 314 311 307 306 306
285 283 278 276 275 276 278 278 281 285 286 286 288 289 292 293 293 293 294 295 295 296 297 299 303 305 309 313 318 320 322 321 319 318 322 323 321 316 321 322 321 320 319 317 315 311 308 306 306
284 284 278 271 272 275 279 277 282 285 287 288 288 291 292 293 293 293 294 294 295 295 296 297 298 300 306 310 313 316 317 317 316 315 318 322 321 320 320 317 317 319 319 318 315 312 309 307 306
285 281 284 277 267 273 277 280 286 286 289 289 290 292 292 293 293 293 293 293 294 295 295 296 297 298 298 302 306 308 310 311 312 311 311 312 313 313 314 314 313 313 313 313 314 312 308 307 306
285 287 281 278 270 268 275 277 280 283 288 289 289 291 291 292 293 292 292 293 293 293 294 296 297 297 297 298 299 300 301 303 305 306 307 306 306 306 306 308 309 310 309 309 309 308 306 305 304
283 283 282 282 279 273 270 276 282 284 288 289 290 291 291 291 291 291 292 293 293 293 293 294 294 294 295 296 297 298 298 299 300 301 301 302 302 302 301 302 302 303 304 306 306 306 304 303 303
284 284 284 279 276 277 277 279 287 286 290 290 291 291 290 290 291 292 292 292 292 291 292 292 292 292 292 294 295 296 296 296 297 297 298 298 299 299 299 298 298 299 300 301 303 303 303 303 302
Wind_Speed
4 3 3 6 5 5 1 2 1 3 2 2 5 5 4 2 3 2 2 7 11 13 10 11 11 12 11 10 10 11 12 13 12 15 17 17 15 15 14 13 14 14 16 17 18 17 18 17 18
2 3 5 3 5 3 3 2 5 4 2 5 4 3 2 1 1 3 9 6 13 12 10 10 11 12 11 11 9 11 11 13 13 13 17 17 15 15 14 14 14 15 16 17 18 17 18 18 18
3 4 4 5 3 4 3 4 4 2 6 1 2 2 4 4 1 10 2 13 13 11 9 11 11 12 12 11 10 10 10 10 11 15 15 16 15 14 13 13 13 14 14 16 17 17 17 17 18
4 5 5 4 3 3 3 4 4 5 2 1 1 3 1 1 6 5 11 14 13 11 10 10 12 13 12 11 11 11 10 10 10 11 14 15 17 13 12 12 14 11 12 15 16 16 17 17 16
5 3 4 3 2 2 2 2 6 5 2 0 0 3 1 1 3 9 15 14 14 11 10 10 10 11 11 10 10 10 10 10 9 9 15 13 15 12 12 12 12 11 12 15 15 16 16 14 13
4 3 4 3 2 1 1 5 6 4 2 0 2 4 1 1 6 10 14 14 12 12 10 9 9 10 10 10 9 9 10 9 10 10 14 14 12 12 12 11 12 10 10 12 16 16 15 13 12
6 4 4 5 3 1 4 6 5 6 5 3 5 4 1 2 5 10 11 12 11 11 11 9 9 9 8 9 9 9 9 9 9 9 12 11 10 10 10 8 12 10 8 13 15 14 13 13 13
6 6 4 2 4 3 5 5 2 4 5 2 3 3 3 4 10 10 10 10 10 10 11 10 9 8 8 8 8 8 9 9 9 9 9 9 9 10 9 6 10 9 11 13 14 14 14 13 12
3 6 3 6 6 3 3 4 1 2 4 3 5 3 1 7 13 11 9 8 8 9 10 10 10 9 8 7 7 7 8 8 8 8 10 8 6 7 7 6 10 9 9 12 12 13 13 12 12
5 4 9 6 5 5 6 4 6 4 2 3 2 2 3 10 14 14 14 13 13 13 11 9 9 10 9 6 7 7 6 5 6 6 7 5 6 5 5 5 9 9 10 10 10 10 10 7 4
2 5 5 3 3 5 6 2 3 5 3 8 8 6 6 7 11 13 12 14 15 14 9 10 9 9 10 8 6 4 4 4 5 8 7 6 5 5 4 4 4 4 6 5 6 5 4 5 4
5 2 4 4 3 5 7 6 3 5 4 3 5 6 7 11 13 15 14 13 15 14 15 11 11 10 10 7 7 6 5 5 5 6 8 6 5 5 5 4 5 4 3 5 4 3 5 5 5
4 3 2 3 6 4 6 1 2 7 7 4 5 6 11 11 13 10 9 7 10 14 14 13 11 11 9 8 7 8 7 6 6 6 7 7 6 6 6 5 5 4 4 4 4 4 4 4 5
3 4 4 3 2 2 3 1 1 4 2 5 5 7 7 11 11 4 7 11 12 12 14 14 14 11 10 9 10 8 8 8 7 7 8 9 7 7 6 6 6 5 5 5 5 5 4 4 5
4 5 3 1 2 2 1 4 10 3 3 5 6 6 5 9 6 13 14 13 13 11 11 15 16 12 11 12 9 8 6 7 7 8 9 10 9 9 9 7 7 6 5 6 5 4 3 3 3
5 6 4 2 3 1 2 9 4 3 1 8 7 6 7 7 11 11 7 9 8 10 14 13 12 13 13 11 9 7 7 7 8 7 8 11 11 10 8 7 7 6 5 5 5 4 4 2 2
7 4 4 3 1 2 3 6 3 1 4 4 5 6 7 8 8 10 12 13 11 13 13 14 15 17 16 12 9 9 9 7 7 7 8 11 11 10 8 6 5 6 5 6 5 2 3 3 3
6 3 1 3 2 1 2 10 8 7 4 7 7 8 8 8 15 7 8 10 11 11 11 13 12 15 16 10 9 7 6 6 6 7 8 12 10 13 10 7 7 8 6 5 7 5 2 2 3
8 4 4 2 1 3 5 8 11 8 6 10 10 10 9 10 10 5 6 7 8 9 12 15 14 16 12 11 10 9 9 8 7 8 10 12 11 12 11 9 9 10 10 10 9 5 7 3 3
5 4 4 1 2 2 4 12 10 8 9 8 8 8 9 7 8 7 7 6 7 9 13 13 16 14 14 11 12 9 9 9 9 8 10 12 12 11 11 10 10 12 8 9 10 9 4 4 9
3 7 4 3 1 3 4 9 7 5 4 6 6 6 6 10 11 6 5 6 5 7 9 11 13 13 14 15 8 6 1 2 7 8 9 11 14 14 13 12 9 10 9 10 13 12 13 8 5
6 7 5 4 4 4 2 6 7 5 11 6 7 5 6 8 6 4 3 4 5 5 5 7 7 10 11 12 11 15 13 13 11 9 8 8 14 14 13 13 14 12 11 11 12 10 11 9 9
4 7 6 4 4 2 3 2 9 4 7 5 3 5 7 7 7 5 5 5 4 6 4 3 5 6 8 11 13 11 13 9 7 8 9 11 10 13 13 14 14 13 11 13 12 12 13 12 8
10 8 8 6 3 2 5 5 7 5 5 2 0 4 6 7 7 6 6 6 6 6 6 5 0 3 4 6 10 11 12 9 3 3 7 6 6 8 11 13 12 13 12 12 12 13 13 13 12
3 6 3 2 3 6 3 2 10 6 6 4 5 7 6 5 5 6 7 7 7 8 7 6 6 5 0 4 5 5 6 5 7 6 6 5 4 3 8 11 11 10 12 12 11 11 13 13 12
7 7 7 9 5 3 3 8 8 3 2 6 4 1 4 6 6 7 6 6 6 6 6 7 7 7 6 4 1 1 3 2 3 4 4 5 6 5 6 6 6 8 9 10 10 8 10 10 11
6 5 5 9 3 4 5 7 12 0 5 3 2 4 6 5 5 6 6 6 6 6 7 6 7 7 7 6 4 4 2 2 0 2 3 3 3 2 4 5 6 6 5 6 7 8 9 10 11
4 8 4 3 3 4 5 5 7 5 7 4 3 6 5 6 7 7 6 7 6 7 6 8 7 8 6 7 6 5 5 4 2 0 3 3 3 3 4 5 5 5 5 5 7 6 6 9 7
3 3 5 5 5 7 2 8 7 6 8 9 6 5 5 6 5 5 6 6 6 7 8 8 8 9 9 6 5 6 6 5 5 3 3 3 3 4 5 5 5 7 7 6 6 7 5 9 9
1 6 6 6 5 2 4 9 2 2 7 7 5 5 4 5 5 5 6 6 7 8 8 9 7 8 7 5 6 7 6 6 6 5 5 4 5 4 5 5 5 6 7 6 9 10 8 10 11
Wind_Direction
12 14 68 41 57 64 151 233 259 133 152 147 118 141 183 118 168 194 341 171 146 145 148 138 136 128 119 115 116 121 108 100 102 117 110 98 93 95 97 94 89 85 94 92 86 85 85 86 85
17 24 46 81 87 81 252 232 181 186 121 121 101 114 103 110 101 105 130 190 153 145 143 140 131 125 132 123 116 105 111 112 103 115 113 103 100 97 103 100 90 87 92 92 90 88 87 89 91
68 34 78 89 108 164 198 205 159 77 137 54 96 27 146 155 61 160 187 153 146 143 141 139 133 136 137 132 124 115 110 111 109 117 117 111 99 102 105 101 95 96 100 95 92 91 92 96 95
49 20 43 86 197 216 181 169 136 116 275 108 116 97 360 207 160 183 146 149 146 146 145 145 141 143 144 138 131 124 120 114 109 116 120 109 103 105 107 102 93 95 106 98 92 95 97 97 91
34 61 70 86 222 268 243 139 144 130 133 168 69 207 116 94 109 138 149 153 153 149 148 150 143 143 142 138 132 128 126 120 112 126 111 113 105 113 113 107 103 96 95 102 109 104 105 99 94
51 101 76 193 225 296 168 153 135 129 114 173 90 138 165 107 139 153 152 153 155 151 149 152 145 142 144 141 138 135 130 128 122 113 116 116 115 119 116 119 113 106 110 95 108 104 102 89 94
125 88 176 158 148 32 147 161 144 156 138 235 152 134 230 201 162 151 147 143 147 151 153 154 155 153 145 144 144 139 136 132 126 116 120 114 116 116 115 124 115 113 115 98 98 97 98 94 80
109 92 121 192 172 196 160 165 123 147 201 67 167 209 202 186 142 131 138 145 150 157 164 162 159 158 158 155 143 141 138 134 125 112 110 107 107 109 115 107 124 119 115 109 105 105 98 97 92
131 71 158 182 157 193 143 160 211 138 123 187 199 166 66 125 129 131 148 151 162 171 175 169 167 166 164 161 159 147 139 130 116 111 110 107 123 122 123 133 120 129 117 120 112 109 104 95 83
85 108 204 187 181 177 176 183 173 132 154 245 191 122 82 143 150 161 171 177 183 185 185 181 174 176 168 165 163 158 147 145 139 136 137 131 133 133 134 123 122 136 137 126 127 111 101 91 98
151 162 177 193 170 135 156 170 165 132 200 223 204 173 163 167 165 174 185 185 187 188 185 184 182 177 178 174 168 165 161 153 153 152 146 139 137 142 141 129 129 123 121 131 127 115 99 107 112
99 92 157 153 118 125 159 130 183 205 228 133 224 158 163 177 184 183 189 186 185 190 194 186 185 184 185 170 182 174 171 170 168 165 157 156 155 156 153 148 145 141 134 135 141 128 119 112 113
102 145 87 78 97 88 124 106 243 246 244 257 97 162 179 195 200 196 180 175 181 192 194 193 186 186 186 179 181 182 183 183 178 173 174 169 166 167 161 161 159 152 149 155 151 143 139 132 133
137 104 107 53 65 87 142 177 30 254 350 258 218 201 195 202 206 173 188 187 189 196 194 193 195 192 187 192 188 184 185 188 179 182 185 180 174 171 172 170 173 168 172 169 168 169 164 162 162
112 86 53 28 95 44 147 291 236 230 341 319 254 261 232 228 189 213 211 208 194 197 187 196 198 191 195 200 197 194 184 176 189 189 187 185 181 180 177 178 184 187 177 169 169 170 166 169 172
72 58 111 306 139 44 126 261 284 17 216 261 254 261 253 242 223 224 220 221 201 192 188 190 194 197 197 200 199 200 189 185 192 191 189 192 187 183 181 187 193 178 175 180 180 159 158 143 184
14 172 172 311 252 108 163 261 281 46 41 302 269 262 260 269 254 236 224 218 210 203 196 191 194 200 202 200 199 199 200 196 194 184 195 194 190 179 179 187 180 165 170 181 158 144 156 172 184
177 164 158 215 228 60 223 264 278 275 296 271 278 273 268 261 257 234 225 221 223 215 204 203 196 199 201 199 202 198 199 200 190 189 197 195 194 188 185 187 177 174 174 177 186 176 159 177 180
128 127 137 265 270 188 229 268 274 285 256 260 260 260 258 250 266 236 248 231 221 210 207 206 194 199 187 197 195 200 203 196 193 191 191 194 198 195 196 194 183 182 189 193 179 159 188 182 138
109 117 185 173 16 161 357 285 262 261 255 237 234 253 260 277 282 278 252 251 224 227 219 214 209 198 195 198 204 202 202 207 202 194 188 191 194 197 198 196 195 192 190 185 183 182 169 179 178
112 150 201 165 77 68 344 297 313 299 271 276 265 255 267 260 276 294 309 283 257 234 225 219 214 206 200 201 195 193 137 133 194 196 194 195 195 194 196 201 199 203 202 199 193 195 198 201 201
160 197 153 137 93 224 39 281 299 310 298 274 312 340 333 328 293 274 333 12 355 301 261 230 207 205 205 196 193 204 210 213 212 206 201 192 194 201 197 201 203 202 200 204 207 201 212 202 201
189 127 132 99 99 76 330 87 271 337 282 307 29 32 1 345 0 40 45 27 13 3 351 257 226 215 208 200 203 202 212 220 216 208 188 193 192 198 197 202 205 203 209 212 204 197 204 211 209
154 81 53 59 99 320 222 151 277 212 217 234 215 350 352 354 352 10 23 21 19 10 19 23 68 235 223 210 212 211 217 216 176 182 201 192 191 196 203 206 209 210 212 213 210 211 203 208 217
70 97 42 358 358 224 5 140 244 243 238 222 288 323 353 6 37 37 29 22 19 19 14 17 29 41 350 202 206 211 208 191 198 191 207 188 179 182 205 206 212 211 211 211 207 203 209 210 214
193 157 157 189 193 247 52 233 251 223 233 271 247 235 59 38 37 42 30 31 29 25 28 33 35 34 27 41 84 159 180 190 196 193 202 221 211 208 213 213 225 223 214 209 202 202 210 213 216
194 191 160 107 19 54 218 283 300 169 52 92 110 80 69 65 56 53 40 39 24 29 29 42 53 47 39 40 45 47 38 32 283 233 198 223 251 258 246 223 224 223 220 209 202 211 211 202 209
157 156 85 9 131 249 275 268 230 192 188 153 100 79 58 60 52 42 32 37 31 39 34 39 49 61 44 41 37 33 30 28 16 329 259 256 261 239 244 252 251 242 222 211 210 218 202 203 207
139 170 62 119 145 168 225 256 222 209 168 165 162 90 60 75 66 52 42 35 35 43 40 40 37 48 47 44 40 40 25 13 13 4 336 301 282 259 245 241 239 243 240 226 217 220 204 215 218
70 184 151 143 211 236 153 257 310 229 152 149 139 75 65 81 70 55 42 35 35 36 36 38 17 28 39 41 54 54 33 18 15 357 342 326 285 271 255 247 237 247 245 228 235 239 228 232 234